Time,TemperatureF,DewpointF,PressureIn,WindDirection,WindDirectionDegrees,WindSpeedMPH,WindSpeedGustMPH,Humidity,HourlyPrecipIn,Conditions,Clouds,dailyrainin,SolarRadiationWatts/m^2,SoftwareType,DateUTC
2013-09-26 00:03:00,66.6,59.1,29.74,SSE,152,6.0,12.0,77,0.00,,,0.00,0,HR-IXPWINDi_r2_v1.2.,2013-09-26 05:03:00,
2013-09-26 00:09:00,66.4,58.9,29.74,ESE,109,2.0,12.0,77,0.00,,,0.00,0,HR-IXPWINDi_r2_v1.2.,2013-09-26 05:09:00,
2013-09-26 00:14:00,66.2,59.1,29.75,SSW,210,5.0,12.0,78,0.00,,,0.00,0,HR-IXPWINDi_r2_v1.2.,2013-09-26 05:14:00,
2013-09-26 00:19:00,66.1,59.0,29.75,SSE,155,7.0,12.0,78,0.00,,,0.00,0,HR-IXPWINDi_r2_v1.2.,2013-09-26 05:19:00,
2013-09-26 00:24:00,65.9,58.8,29.75,ESE,112,8.0,16.0,78,0.00,,,0.00,0,HR-IXPWINDi_r2_v1.2.,2013-09-26 05:24:00,
2013-09-26 00:29:00,65.7,58.9,29.74,SE,137,7.0,16.0,79,0.00,,,0.00,0,HR-IXPWINDi_r2_v1.2.,2013-09-26 05:29:00,
2013-09-26 00:35:00,65.6,58.8,29.74,South,181,5.0,16.0,79,0.00,,,0.00,0,HR-IXPWINDi_r2_v1.2.,2013-09-26 05:35:00,
2013-09-26 00:40:00,65.5,59.1,29.74,SSE,153,3.0,15.0,80,0.00,,,0.00,0,HR-IXPWINDi_r2_v1.2.,2013-09-26 05:40:00,
2013-09-26 00:45:00,65.3,58.9,29.74,SSE,161,2.0,12.0,80,0.00,,,0.00,0,HR-IXPWINDi_r2_v1.2.,2013-09-26 05:45:00,
2013-09-26 00:50:00,65.2,59.2,29.74,ESE,102,4.0,12.0,81,0.00,,,0.00,0,HR-IXPWINDi_r2_v1.2.,2013-09-26 05:50:00,
2013-09-26 00:55:00,65.1,59.1,29.74,South,174,1.0,9.0,81,0.00,,,0.00,0,HR-IXPWINDi_r2_v1.2.,2013-09-26 05:55:00,
2013-09-26 01:00:00,65.0,59.0,29.74,SSE,157,3.0,14.0,81,0.00,,,0.00,0,HR-IXPWINDi_r2_v1.2.,2013-09-26 06:00:00,
2013-09-26 01:06:00,64.9,59.2,29.74,SSE,157,2.0,16.0,82,0.00,,,0.00,0,HR-IXPWINDi_r2_v1.2.,2013-09-26 06:06:00,
2013-09-26 01:11:00,64.8,59.1,29.74,East,96,9.0,16.0,82,0.00,,,0.00,0,HR-IXPWINDi_r2_v1.2.,2013-09-26 06:11:00,
2013-09-26 01:16:00,64.7,59.0,29.74,SE,128,3.0,10.0,82,0.00,,,0.00,0,HR-IXPWINDi_r2_v1.2.,2013-09-26 06:16:00,
2013-09-26 01:21:00,64.5,58.8,29.74,South,169,3.0,10.0,82,0.00,,,0.00,0,HR-IXPWINDi_r2_v1.2.,2013-09-26 06:21:00,
2013-09-26 01:26:00,64.4,58.7,29.74,SSE,167,3.0,10.0,82,0.00,,,0.00,0,HR-IXPWINDi_r2_v1.2.,2013-09-26 06:26:00,
2013-09-26 01:32:00,64.3,59.0,29.74,SE,142,4.0,8.0,83,0.00,,,0.00,0,HR-IXPWINDi_r2_v1.2.,2013-09-26 06:32:00,
2013-09-26 01:37:00,64.1,58.8,29.74,SE,141,6.0,9.0,83,0.00,,,0.00,0,HR-IXPWINDi_r2_v1.2.,2013-09-26 06:37:00,
2013-09-26 01:42:00,64.0,58.3,29.74,SE,134,2.0,9.0,82,0.00,,,0.00,0,HR-IXPWINDi_r2_v1.2.,2013-09-26 06:42:00,
2013-09-26 01:47:00,63.9,58.6,29.74,SSE,156,3.0,9.0,83,0.00,,,0.00,0,HR-IXPWINDi_r2_v1.2.,2013-09-26 06:47:00,
2013-09-26 01:52:00,63.7,58.4,29.74,SSE,155,6.0,12.0,83,0.00,,,0.00,0,HR-IXPWINDi_r2_v1.2.,2013-09-26 06:52:00,
2013-09-26 01:57:00,63.6,58.3,29.74,SE,143,4.0,12.0,83,0.00,,,0.00,0,HR-IXPWINDi_r2_v1.2.,2013-09-26 06:57:00,
2013-09-26 02:02:00,63.5,58.2,29.73,SE,128,5.0,10.0,83,0.00,,,0.00,0,HR-IXPWINDi_r2_v1.2.,2013-09-26 07:02:00,
2013-09-26 02:08:00,63.5,58.2,29.73,SSW,192,2.0,14.0,83,0.00,,,0.00,0,HR-IXPWINDi_r2_v1.2.,2013-09-26 07:08:00,
2013-09-26 02:13:00,63.4,58.1,29.73,ESE,109,4.0,14.0,83,0.00,,,0.00,0,HR-IXPWINDi_r2_v1.2.,2013-09-26 07:13:00,
2013-09-26 02:18:00,63.4,58.1,29.73,SE,130,3.0,11.0,83,0.00,,,0.00,0,HR-IXPWINDi_r2_v1.2.,2013-09-26 07:18:00,
2013-09-26 02:23:00,63.4,58.1,29.73,SE,141,4.0,11.0,83,0.00,,,0.00,0,HR-IXPWINDi_r2_v1.2.,2013-09-26 07:23:00,
2013-09-26 02:28:00,63.4,58.1,29.73,SSE,150,10.0,10.0,83,0.00,,,0.00,0,HR-IXPWINDi_r2_v1.2.,2013-09-26 07:28:00,
2013-09-26 02:33:00,63.4,58.1,29.73,SE,138,3.0,10.0,83,0.00,,,0.00,0,HR-IXPWINDi_r2_v1.2.,2013-09-26 07:33:00,
2013-09-26 02:39:00,63.3,58.0,29.73,ESE,120,2.0,11.0,83,0.00,,,0.00,0,HR-IXPWINDi_r2_v1.2.,2013-09-26 07:39:00,
2013-09-26 02:44:00,63.3,58.0,29.73,East,92,7.0,11.0,83,0.00,,,0.00,0,HR-IXPWINDi_r2_v1.2.,2013-09-26 07:44:00,
2013-09-26 02:49:00,63.4,58.1,29.73,SSE,168,3.0,14.0,83,0.00,,,0.00,0,HR-IXPWINDi_r2_v1.2.,2013-09-26 07:49:00,
2013-09-26 02:54:00,63.3,58.0,29.73,East,92,3.0,14.0,83,0.00,,,0.00,0,HR-IXPWINDi_r2_v1.2.,2013-09-26 07:54:00,
2013-09-26 02:59:00,63.2,57.9,29.73,SE,138,6.0,10.0,83,0.00,,,0.00,0,HR-IXPWINDi_r2_v1.2.,2013-09-26 07:59:00,
2013-09-26 03:04:00,63.2,57.9,29.73,SE,139,3.0,11.0,83,0.00,,,0.00,0,HR-IXPWINDi_r2_v1.2.,2013-09-26 08:04:00,
2013-09-26 03:10:00,63.1,58.1,29.73,SE,130,6.0,11.0,84,0.00,,,0.00,0,HR-IXPWINDi_r2_v1.2.,2013-09-26 08:10:00,
2013-09-26 03:15:00,63.0,58.0,29.73,SE,133,5.0,11.0,84,0.00,,,0.00,0,HR-IXPWINDi_r2_v1.2.,2013-09-26 08:15:00,
2013-09-26 03:20:00,63.0,58.0,29.73,SE,144,3.0,9.0,84,0.00,,,0.00,0,HR-IXPWINDi_r2_v1.2.,2013-09-26 08:20:00,
2013-09-26 03:25:00,62.9,57.9,29.73,SE,133,3.0,11.0,84,0.00,,,0.00,0,HR-IXPWINDi_r2_v1.2.,2013-09-26 08:25:00,
2013-09-26 03:30:00,62.8,57.8,29.73,SE,142,3.0,11.0,84,0.00,,,0.00,0,HR-IXPWINDi_r2_v1.2.,2013-09-26 08:30:00,
2013-09-26 03:35:00,62.7,57.7,29.73,ESE,123,5.0,11.0,84,0.00,,,0.00,0,HR-IXPWINDi_r2_v1.2.,2013-09-26 08:35:00,
2013-09-26 03:40:00,62.5,57.5,29.73,ESE,116,4.0,11.0,84,0.00,,,0.00,0,HR-IXPWINDi_r2_v1.2.,2013-09-26 08:40:00,
2013-09-26 03:46:00,62.4,57.8,29.72,SSE,157,4.0,14.0,85,0.00,,,0.00,0,HR-IXPWINDi_r2_v1.2.,2013-09-26 08:46:00,
2013-09-26 03:51:00,62.3,57.7,29.72,SE,145,6.0,14.0,85,0.00,,,0.00,0,HR-IXPWINDi_r2_v1.2.,2013-09-26 08:51:00,
2013-09-26 03:56:00,62.2,57.6,29.73,ESE,118,3.0,14.0,85,0.00,,,0.00,0,HR-IXPWINDi_r2_v1.2.,2013-09-26 08:56:00,
2013-09-26 04:01:00,62.2,57.6,29.73,East,96,5.0,13.0,85,0.00,,,0.00,0,HR-IXPWINDi_r2_v1.2.,2013-09-26 09:01:00,
2013-09-26 04:06:00,62.1,57.5,29.72,ESE,108,3.0,13.0,85,0.00,,,0.00,0,HR-IXPWINDi_r2_v1.2.,2013-09-26 09:06:00,
2013-09-26 04:12:00,62.1,57.5,29.72,WSW,250,4.0,13.0,85,0.00,,,0.00,0,HR-IXPWINDi_r2_v1.2.,2013-09-26 09:12:00,
2013-09-26 04:17:00,62.2,57.9,29.72,SE,138,3.0,16.0,86,0.00,,,0.00,0,HR-IXPWINDi_r2_v1.2.,2013-09-26 09:17:00,
2013-09-26 04:22:00,62.1,57.8,29.73,SSW,209,0.0,16.0,86,0.00,,,0.00,0,HR-IXPWINDi_r2_v1.2.,2013-09-26 09:22:00,
2013-09-26 04:27:00,62.2,57.9,29.73,SSE,148,3.0,10.0,86,0.00,,,0.00,0,HR-IXPWINDi_r2_v1.2.,2013-09-26 09:27:00,
2013-09-26 04:32:00,62.1,57.8,29.73,SSE,168,3.0,10.0,86,0.00,,,0.00,0,HR-IXPWINDi_r2_v1.2.,2013-09-26 09:32:00,
2013-09-26 04:37:00,62.1,57.8,29.72,SSE,155,2.0,12.0,86,0.00,,,0.00,0,HR-IXPWINDi_r2_v1.2.,2013-09-26 09:37:00,
2013-09-26 04:43:00,62.1,57.8,29.72,ESE,118,3.0,14.0,86,0.00,,,0.00,0,HR-IXPWINDi_r2_v1.2.,2013-09-26 09:43:00,
2013-09-26 04:48:00,62.1,58.1,29.72,South,175,5.0,14.0,87,0.00,,,0.00,0,HR-IXPWINDi_r2_v1.2.,2013-09-26 09:48:00,
2013-09-26 04:53:00,62.0,58.0,29.72,SSE,165,6.0,11.0,87,0.00,,,0.00,0,HR-IXPWINDi_r2_v1.2.,2013-09-26 09:53:00,
2013-09-26 04:58:00,61.9,57.9,29.73,ESE,104,3.0,12.0,87,0.00,,,0.00,0,HR-IXPWINDi_r2_v1.2.,2013-09-26 09:58:00,
2013-09-26 05:03:00,62.0,58.0,29.73,SE,144,3.0,12.0,87,0.00,,,0.00,0,HR-IXPWINDi_r2_v1.2.,2013-09-26 10:03:00,
2013-09-26 05:08:00,61.9,57.9,29.73,SSE,153,5.0,12.0,87,0.00,,,0.00,0,HR-IXPWINDi_r2_v1.2.,2013-09-26 10:08:00,
2013-09-26 05:13:00,61.9,57.9,29.73,South,171,2.0,12.0,87,0.00,,,0.00,0,HR-IXPWINDi_r2_v1.2.,2013-09-26 10:13:00,
2013-09-26 05:18:00,61.8,57.8,29.73,SSE,148,4.0,13.0,87,0.00,,,0.00,0,HR-IXPWINDi_r2_v1.2.,2013-09-26 10:18:00,
2013-09-26 05:24:00,61.7,58.0,29.73,SE,144,3.0,13.0,88,0.00,,,0.00,0,HR-IXPWINDi_r2_v1.2.,2013-09-26 10:24:00,
2013-09-26 05:29:00,61.6,57.9,29.73,ESE,105,8.0,11.0,88,0.00,,,0.00,0,HR-IXPWINDi_r2_v1.2.,2013-09-26 10:29:00,
2013-09-26 05:34:00,61.6,57.9,29.73,SE,137,5.0,14.0,88,0.00,,,0.00,0,HR-IXPWINDi_r2_v1.2.,2013-09-26 10:34:00,
2013-09-26 05:39:00,61.6,57.9,29.73,ESE,122,2.0,14.0,88,0.00,,,0.00,0,HR-IXPWINDi_r2_v1.2.,2013-09-26 10:39:00,
2013-09-26 05:44:00,61.7,58.0,29.73,South,171,2.0,10.0,88,0.00,,,0.00,0,HR-IXPWINDi_r2_v1.2.,2013-09-26 10:44:00,
2013-09-26 05:49:00,61.7,58.0,29.73,SSE,152,6.0,12.0,88,0.00,,,0.00,0,HR-IXPWINDi_r2_v1.2.,2013-09-26 10:49:00,
2013-09-26 05:54:00,61.7,58.0,29.73,East,98,5.0,12.0,88,0.00,,,0.00,0,HR-IXPWINDi_r2_v1.2.,2013-09-26 10:54:00,
2013-09-26 05:59:00,61.8,58.1,29.73,SE,145,3.0,14.0,88,0.00,,,0.00,0,HR-IXPWINDi_r2_v1.2.,2013-09-26 10:59:00,
2013-09-26 06:04:00,61.7,58.0,29.73,ESE,109,3.0,14.0,88,0.00,,,0.00,0,HR-IXPWINDi_r2_v1.2.,2013-09-26 11:04:00,
2013-09-26 06:10:00,61.7,58.0,29.73,SSE,155,3.0,11.0,88,0.00,,,0.00,0,HR-IXPWINDi_r2_v1.2.,2013-09-26 11:10:00,
2013-09-26 06:15:00,61.7,58.0,29.73,SE,126,4.0,13.0,88,0.00,,,0.00,0,HR-IXPWINDi_r2_v1.2.,2013-09-26 11:15:00,
2013-09-26 06:20:00,61.7,58.0,29.73,SE,124,4.0,13.0,88,0.00,,,0.00,0,HR-IXPWINDi_r2_v1.2.,2013-09-26 11:20:00,
2013-09-26 06:25:00,61.7,58.0,29.73,SW,225,2.0,13.0,88,0.00,,,0.00,0,HR-IXPWINDi_r2_v1.2.,2013-09-26 11:25:00,
2013-09-26 06:30:00,61.7,58.0,29.74,SE,128,5.0,11.0,88,0.00,,,0.00,0,HR-IXPWINDi_r2_v1.2.,2013-09-26 11:30:00,
2013-09-26 06:35:00,61.7,58.0,29.74,SSE,149,5.0,10.0,88,0.00,,,0.00,0,HR-IXPWINDi_r2_v1.2.,2013-09-26 11:35:00,
2013-09-26 06:40:00,61.7,58.4,29.73,SSE,155,5.0,14.0,89,0.00,,,0.00,0,HR-IXPWINDi_r2_v1.2.,2013-09-26 11:40:00,
2013-09-26 06:46:00,61.7,58.0,29.73,SSE,153,7.0,14.0,88,0.00,,,0.00,0,HR-IXPWINDi_r2_v1.2.,2013-09-26 11:46:00,
2013-09-26 06:51:00,61.6,58.3,29.74,SSE,153,3.0,11.0,89,0.00,,,0.00,0,HR-IXPWINDi_r2_v1.2.,2013-09-26 11:51:00,
2013-09-26 06:56:00,61.5,58.2,29.74,SSE,159,6.0,10.0,89,0.00,,,0.00,0,HR-IXPWINDi_r2_v1.2.,2013-09-26 11:56:00,
2013-09-26 07:01:00,61.5,58.2,29.74,ESE,120,5.0,13.0,89,0.00,,,0.00,0,HR-IXPWINDi_r2_v1.2.,2013-09-26 12:01:00,
2013-09-26 07:06:00,61.5,58.2,29.74,SE,131,4.0,13.0,89,0.00,,,0.00,0,HR-IXPWINDi_r2_v1.2.,2013-09-26 12:06:00,
2013-09-26 07:12:00,61.5,58.2,29.74,SSE,148,8.0,13.0,89,0.00,,,0.00,0,HR-IXPWINDi_r2_v1.2.,2013-09-26 12:12:00,
2013-09-26 07:17:00,61.5,58.2,29.74,SE,130,3.0,14.0,89,0.00,,,0.00,5,HR-IXPWINDi_r2_v1.2.,2013-09-26 12:17:00,
2013-09-26 07:22:00,61.6,58.3,29.74,SE,142,3.0,14.0,89,0.00,,,0.00,7,HR-IXPWINDi_r2_v1.2.,2013-09-26 12:22:00,
2013-09-26 07:27:00,61.6,58.3,29.74,SSW,206,2.0,15.0,89,0.00,,,0.00,12,HR-IXPWINDi_r2_v1.2.,2013-09-26 12:27:00,
2013-09-26 07:33:00,61.7,58.4,29.74,SE,135,4.0,15.0,89,0.00,,,0.00,18,HR-IXPWINDi_r2_v1.2.,2013-09-26 12:33:00,
2013-09-26 07:38:00,61.7,58.4,29.75,ESE,120,15.0,15.0,89,0.00,,,0.00,25,HR-IXPWINDi_r2_v1.2.,2013-09-26 12:38:00,
2013-09-26 07:43:00,61.9,58.6,29.74,SE,128,4.0,15.0,89,0.00,,,0.00,32,HR-IXPWINDi_r2_v1.2.,2013-09-26 12:43:00,
2013-09-26 07:48:00,62.0,58.7,29.74,SE,143,8.0,15.0,89,0.00,,,0.00,42,HR-IXPWINDi_r2_v1.2.,2013-09-26 12:48:00,
2013-09-26 07:53:00,62.2,58.9,29.74,SE,145,7.0,14.0,89,0.00,,,0.00,53,HR-IXPWINDi_r2_v1.2.,2013-09-26 12:53:00,
2013-09-26 07:58:00,62.5,59.1,29.74,SSE,153,4.0,15.0,89,0.00,,,0.00,72,HR-IXPWINDi_r2_v1.2.,2013-09-26 12:58:00,
2013-09-26 08:03:00,62.9,59.2,29.74,SE,128,3.0,19.0,88,0.00,,,0.00,88,HR-IXPWINDi_r2_v1.2.,2013-09-26 13:03:00,
2013-09-26 08:08:00,63.2,59.2,29.74,SSE,152,9.0,19.0,87,0.00,,,0.00,105,HR-IXPWINDi_r2_v1.2.,2013-09-26 13:08:00,
2013-09-26 08:14:00,63.5,59.5,29.74,SE,144,3.0,13.0,87,0.00,,,0.00,123,HR-IXPWINDi_r2_v1.2.,2013-09-26 13:14:00,
2013-09-26 08:19:00,63.9,59.6,29.74,East,89,5.0,13.0,86,0.00,,,0.00,141,HR-IXPWINDi_r2_v1.2.,2013-09-26 13:19:00,
2013-09-26 08:24:00,64.3,59.6,29.74,SSW,194,5.0,17.0,85,0.00,,,0.00,156,HR-IXPWINDi_r2_v1.2.,2013-09-26 13:24:00,
2013-09-26 08:29:00,64.7,60.0,29.74,SSE,148,5.0,17.0,85,0.00,,,0.00,172,HR-IXPWINDi_r2_v1.2.,2013-09-26 13:29:00,
2013-09-26 08:34:00,65.2,60.2,29.74,South,184,9.0,16.0,84,0.00,,,0.00,188,HR-IXPWINDi_r2_v1.2.,2013-09-26 13:34:00,
2013-09-26 08:39:00,65.6,60.2,29.74,ESE,115,5.0,16.0,83,0.00,,,0.00,204,HR-IXPWINDi_r2_v1.2.,2013-09-26 13:39:00,
2013-09-26 08:45:00,65.9,60.2,29.75,SE,142,10.0,18.0,82,0.00,,,0.00,220,HR-IXPWINDi_r2_v1.2.,2013-09-26 13:45:00,
2013-09-26 08:50:00,66.3,60.2,29.75,SE,126,6.0,18.0,81,0.00,,,0.00,236,HR-IXPWINDi_r2_v1.2.,2013-09-26 13:50:00,
2013-09-26 08:55:00,66.8,60.4,29.75,SE,138,5.0,16.0,80,0.00,,,0.00,253,HR-IXPWINDi_r2_v1.2.,2013-09-26 13:55:00,
2013-09-26 09:00:00,67.1,60.3,29.75,SSE,163,5.0,16.0,79,0.00,,,0.00,267,HR-IXPWINDi_r2_v1.2.,2013-09-26 14:00:00,
2013-09-26 09:06:00,67.6,60.4,29.75,South,190,4.0,16.0,78,0.00,,,0.00,287,HR-IXPWINDi_r2_v1.2.,2013-09-26 14:06:00,
2013-09-26 09:11:00,68.1,60.2,29.75,South,169,5.0,16.0,76,0.00,,,0.00,302,HR-IXPWINDi_r2_v1.2.,2013-09-26 14:11:00,
2013-09-26 09:16:00,68.6,60.3,29.75,East,80,9.0,19.0,75,0.00,,,0.00,313,HR-IXPWINDi_r2_v1.2.,2013-09-26 14:16:00,
2013-09-26 09:21:00,69.0,60.7,29.75,SE,130,4.0,19.0,75,0.00,,,0.00,330,HR-IXPWINDi_r2_v1.2.,2013-09-26 14:21:00,
2013-09-26 09:26:00,69.4,60.7,29.75,ESE,120,7.0,18.0,74,0.00,,,0.00,348,HR-IXPWINDi_r2_v1.2.,2013-09-26 14:26:00,
2013-09-26 09:31:00,69.7,60.6,29.75,SSE,153,3.0,17.0,73,0.00,,,0.00,362,HR-IXPWINDi_r2_v1.2.,2013-09-26 14:31:00,
2013-09-26 09:36:00,70.1,60.6,29.75,South,190,6.0,21.0,72,0.00,,,0.00,380,HR-IXPWINDi_r2_v1.2.,2013-09-26 14:36:00,
2013-09-26 09:42:00,70.4,60.9,29.74,SE,140,6.0,21.0,72,0.00,,,0.00,396,HR-IXPWINDi_r2_v1.2.,2013-09-26 14:42:00,
2013-09-26 09:47:00,70.8,60.9,29.75,SSE,161,6.0,20.0,71,0.00,,,0.00,410,HR-IXPWINDi_r2_v1.2.,2013-09-26 14:47:00,
2013-09-26 09:52:00,71.2,60.9,29.74,South,174,8.0,20.0,70,0.00,,,0.00,425,HR-IXPWINDi_r2_v1.2.,2013-09-26 14:52:00,
2013-09-26 09:57:00,71.7,60.9,29.74,East,93,9.0,20.0,69,0.00,,,0.00,438,HR-IXPWINDi_r2_v1.2.,2013-09-26 14:57:00,
2013-09-26 10:03:00,72.3,60.7,29.74,SW,232,9.0,19.0,67,0.00,,,0.00,452,HR-IXPWINDi_r2_v1.2.,2013-09-26 15:03:00,
2013-09-26 10:08:00,72.9,60.8,29.74,SSE,155,7.0,19.0,66,0.00,,,0.00,469,HR-IXPWINDi_r2_v1.2.,2013-09-26 15:08:00,
2013-09-26 10:13:00,73.5,61.0,29.74,ENE,78,8.0,19.0,65,0.00,,,0.00,480,HR-IXPWINDi_r2_v1.2.,2013-09-26 15:13:00,
2013-09-26 10:18:00,73.7,60.7,29.74,SSE,153,17.0,23.0,64,0.00,,,0.00,496,HR-IXPWINDi_r2_v1.2.,2013-09-26 15:18:00,
2013-09-26 10:24:00,74.3,60.8,29.74,SE,133,4.0,23.0,63,0.00,,,0.00,506,HR-IXPWINDi_r2_v1.2.,2013-09-26 15:24:00,
2013-09-26 10:29:00,75.0,61.0,29.74,North,360,3.0,17.0,62,0.00,,,0.00,522,HR-IXPWINDi_r2_v1.2.,2013-09-26 15:29:00,
2013-09-26 10:34:00,75.3,60.4,29.74,SE,139,10.0,17.0,60,0.00,,,0.00,536,HR-IXPWINDi_r2_v1.2.,2013-09-26 15:34:00,
2013-09-26 10:39:00,75.6,60.2,29.73,North,360,3.0,20.0,59,0.00,,,0.00,545,HR-IXPWINDi_r2_v1.2.,2013-09-26 15:39:00,
2013-09-26 10:45:00,76.4,60.5,29.74,SSE,152,5.0,20.0,58,0.00,,,0.00,559,HR-IXPWINDi_r2_v1.2.,2013-09-26 15:45:00,
2013-09-26 10:50:00,76.6,60.7,29.73,SE,140,9.0,20.0,58,0.00,,,0.00,571,HR-IXPWINDi_r2_v1.2.,2013-09-26 15:50:00,
2013-09-26 10:55:00,77.1,60.6,29.74,SSE,147,15.0,22.0,57,0.00,,,0.00,582,HR-IXPWINDi_r2_v1.2.,2013-09-26 15:55:00,
2013-09-26 11:00:00,77.4,59.9,29.73,North,360,11.0,22.0,55,0.00,,,0.00,596,HR-IXPWINDi_r2_v1.2.,2013-09-26 16:00:00,
2013-09-26 11:05:00,77.5,59.5,29.73,SSW,192,5.0,24.0,54,0.00,,,0.00,606,HR-IXPWINDi_r2_v1.2.,2013-09-26 16:05:00,
2013-09-26 11:10:00,78.0,60.0,29.73,North,360,8.0,24.0,54,0.00,,,0.00,615,HR-IXPWINDi_r2_v1.2.,2013-09-26 16:10:00,
2013-09-26 11:15:00,78.6,60.0,29.73,SSE,165,5.0,22.0,53,0.00,,,0.00,626,HR-IXPWINDi_r2_v1.2.,2013-09-26 16:15:00,
2013-09-26 11:20:00,79.0,60.4,29.73,North,360,6.0,22.0,53,0.00,,,0.00,633,HR-IXPWINDi_r2_v1.2.,2013-09-26 16:20:00,
2013-09-26 11:25:00,79.7,59.9,29.73,East,79,6.0,17.0,51,0.00,,,0.00,645,HR-IXPWINDi_r2_v1.2.,2013-09-26 16:25:00,
2013-09-26 11:30:00,80.1,60.3,29.73,East,94,7.0,18.0,51,0.00,,,0.00,649,HR-IXPWINDi_r2_v1.2.,2013-09-26 16:30:00,
2013-09-26 11:35:00,80.5,59.5,29.73,North,360,13.0,18.0,49,0.00,,,0.00,659,HR-IXPWINDi_r2_v1.2.,2013-09-26 16:35:00,
2013-09-26 11:41:00,80.8,59.8,29.73,North,360,10.0,20.0,49,0.00,,,0.00,668,HR-IXPWINDi_r2_v1.2.,2013-09-26 16:41:00,
2013-09-26 11:46:00,80.7,59.1,29.73,SE,138,10.0,23.0,48,0.00,,,0.00,677,HR-IXPWINDi_r2_v1.2.,2013-09-26 16:46:00,
2013-09-26 11:51:00,81.4,59.8,29.73,SE,140,7.0,23.0,48,0.00,,,0.00,686,HR-IXPWINDi_r2_v1.2.,2013-09-26 16:51:00,
2013-09-26 11:57:00,82.0,59.7,29.73,North,360,11.0,19.0,47,0.00,,,0.00,689,HR-IXPWINDi_r2_v1.2.,2013-09-26 16:57:00,
2013-09-26 12:02:00,82.4,59.5,29.73,NNW,338,5.0,19.0,46,0.00,,,0.00,698,HR-IXPWINDi_r2_v1.2.,2013-09-26 17:02:00,
2013-09-26 12:07:00,82.6,59.1,29.72,SSE,156,6.0,20.0,45,0.00,,,0.00,701,HR-IXPWINDi_r2_v1.2.,2013-09-26 17:07:00,
2013-09-26 12:12:00,83.4,59.8,29.72,North,360,5.0,20.0,45,0.00,,,0.00,710,HR-IXPWINDi_r2_v1.2.,2013-09-26 17:12:00,
2013-09-26 12:17:00,83.7,59.4,29.72,North,360,6.0,18.0,44,0.00,,,0.00,714,HR-IXPWINDi_r2_v1.2.,2013-09-26 17:17:00,
2013-09-26 12:23:00,83.6,59.3,29.72,WSW,238,6.0,22.0,44,0.00,,,0.00,721,HR-IXPWINDi_r2_v1.2.,2013-09-26 17:23:00,
2013-09-26 12:28:00,84.0,59.1,29.71,ESE,111,10.0,23.0,43,0.00,,,0.00,724,HR-IXPWINDi_r2_v1.2.,2013-09-26 17:28:00,
2013-09-26 12:33:00,83.7,58.8,29.71,North,360,3.0,23.0,43,0.00,,,0.00,728,HR-IXPWINDi_r2_v1.2.,2013-09-26 17:33:00,
2013-09-26 12:38:00,83.7,58.8,29.71,SSE,157,5.0,21.0,43,0.00,,,0.00,731,HR-IXPWINDi_r2_v1.2.,2013-09-26 17:38:00,
2013-09-26 12:44:00,83.8,58.2,29.71,ENE,78,9.0,30.0,42,0.00,,,0.00,731,HR-IXPWINDi_r2_v1.2.,2013-09-26 17:44:00,
2013-09-26 12:49:00,83.9,58.3,29.70,North,360,4.0,30.0,42,0.00,,,0.00,735,HR-IXPWINDi_r2_v1.2.,2013-09-26 17:49:00,
2013-09-26 12:54:00,84.7,59.0,29.70,North,360,4.0,25.0,42,0.00,,,0.00,737,HR-IXPWINDi_r2_v1.2.,2013-09-26 17:54:00,
2013-09-26 12:59:00,85.0,58.6,29.70,North,360,7.0,23.0,41,0.00,,,0.00,742,HR-IXPWINDi_r2_v1.2.,2013-09-26 17:59:00,
2013-09-26 13:04:00,85.1,58.7,29.70,North,360,11.0,23.0,41,0.00,,,0.00,742,HR-IXPWINDi_r2_v1.2.,2013-09-26 18:04:00,
2013-09-26 13:09:00,85.0,58.6,29.70,North,360,7.0,28.0,41,0.00,,,0.00,744,HR-IXPWINDi_r2_v1.2.,2013-09-26 18:09:00,
2013-09-26 13:14:00,85.8,58.7,29.70,East,93,3.0,28.0,40,0.00,,,0.00,740,HR-IXPWINDi_r2_v1.2.,2013-09-26 18:14:00,
2013-09-26 13:19:00,85.7,57.9,29.70,North,360,8.0,21.0,39,0.00,,,0.00,740,HR-IXPWINDi_r2_v1.2.,2013-09-26 18:19:00,
2013-09-26 13:24:00,85.9,58.0,29.70,ESE,122,10.0,21.0,39,0.00,,,0.00,742,HR-IXPWINDi_r2_v1.2.,2013-09-26 18:24:00,
2013-09-26 13:30:00,86.5,58.6,29.70,North,360,12.0,18.0,39,0.00,,,0.00,737,HR-IXPWINDi_r2_v1.2.,2013-09-26 18:30:00,
2013-09-26 13:35:00,86.7,58.8,29.69,North,360,4.0,22.0,39,0.00,,,0.00,735,HR-IXPWINDi_r2_v1.2.,2013-09-26 18:35:00,
2013-09-26 13:40:00,86.9,58.2,29.69,North,360,13.0,22.0,38,0.00,,,0.00,737,HR-IXPWINDi_r2_v1.2.,2013-09-26 18:40:00,
2013-09-26 13:45:00,86.7,58.0,29.69,NNE,28,5.0,27.0,38,0.00,,,0.00,733,HR-IXPWINDi_r2_v1.2.,2013-09-26 18:45:00,
2013-09-26 13:51:00,87.2,58.5,29.69,North,360,8.0,27.0,38,0.00,,,0.00,733,HR-IXPWINDi_r2_v1.2.,2013-09-26 18:51:00,
2013-09-26 13:56:00,87.7,58.2,29.68,North,360,7.0,22.0,37,0.00,,,0.00,729,HR-IXPWINDi_r2_v1.2.,2013-09-26 18:56:00,
2013-09-26 14:01:00,87.7,58.2,29.68,SSW,193,6.0,23.0,37,0.00,,,0.00,728,HR-IXPWINDi_r2_v1.2.,2013-09-26 19:01:00,
2013-09-26 14:06:00,87.6,58.1,29.68,North,360,11.0,23.0,37,0.00,,,0.00,719,HR-IXPWINDi_r2_v1.2.,2013-09-26 19:06:00,
2013-09-26 14:12:00,87.9,58.3,29.68,East,80,13.0,22.0,37,0.00,,,0.00,715,HR-IXPWINDi_r2_v1.2.,2013-09-26 19:12:00,
2013-09-26 14:17:00,88.1,58.5,29.68,North,360,8.0,22.0,37,0.00,,,0.00,712,HR-IXPWINDi_r2_v1.2.,2013-09-26 19:17:00,
2013-09-26 14:22:00,88.1,57.8,29.68,ESE,105,4.0,18.0,36,0.00,,,0.00,708,HR-IXPWINDi_r2_v1.2.,2013-09-26 19:22:00,
2013-09-26 14:27:00,88.2,57.8,29.68,North,360,9.0,23.0,36,0.00,,,0.00,701,HR-IXPWINDi_r2_v1.2.,2013-09-26 19:27:00,
2013-09-26 14:32:00,88.6,58.2,29.68,ESE,102,15.0,23.0,36,0.00,,,0.00,696,HR-IXPWINDi_r2_v1.2.,2013-09-26 19:32:00,
2013-09-26 14:37:00,88.2,57.8,29.68,East,92,16.0,20.0,36,0.00,,,0.00,686,HR-IXPWINDi_r2_v1.2.,2013-09-26 19:37:00,
2013-09-26 14:43:00,88.3,57.9,29.67,North,360,5.0,22.0,36,0.00,,,0.00,682,HR-IXPWINDi_r2_v1.2.,2013-09-26 19:43:00,
2013-09-26 14:48:00,88.2,57.8,29.67,ESE,109,8.0,22.0,36,0.00,,,0.00,673,HR-IXPWINDi_r2_v1.2.,2013-09-26 19:48:00,
2013-09-26 14:53:00,88.1,57.8,29.67,North,360,14.0,22.0,36,0.00,,,0.00,664,HR-IXPWINDi_r2_v1.2.,2013-09-26 19:53:00,
2013-09-26 14:58:00,88.4,58.0,29.67,East,99,13.0,22.0,36,0.00,,,0.00,657,HR-IXPWINDi_r2_v1.2.,2013-09-26 19:58:00,
2013-09-26 15:04:00,88.7,58.3,29.67,North,360,2.0,18.0,36,0.00,,,0.00,649,HR-IXPWINDi_r2_v1.2.,2013-09-26 20:04:00,
2013-09-26 15:09:00,89.0,58.6,29.67,North,360,2.0,30.0,36,0.00,,,0.00,638,HR-IXPWINDi_r2_v1.2.,2013-09-26 20:09:00,
2013-09-26 15:15:00,89.2,57.9,29.67,ESE,104,5.0,30.0,35,0.00,,,0.00,629,HR-IXPWINDi_r2_v1.2.,2013-09-26 20:15:00,
2013-09-26 15:20:00,88.5,58.1,29.67,North,360,11.0,21.0,36,0.00,,,0.00,619,HR-IXPWINDi_r2_v1.2.,2013-09-26 20:20:00,
2013-09-26 15:25:00,88.5,58.1,29.67,North,360,8.0,22.0,36,0.00,,,0.00,612,HR-IXPWINDi_r2_v1.2.,2013-09-26 20:25:00,
2013-09-26 15:30:00,89.0,58.6,29.67,North,360,5.0,22.0,36,0.00,,,0.00,598,HR-IXPWINDi_r2_v1.2.,2013-09-26 20:30:00,
2013-09-26 15:35:00,89.5,58.2,29.67,NE,46,8.0,15.0,35,0.00,,,0.00,587,HR-IXPWINDi_r2_v1.2.,2013-09-26 20:35:00,
2013-09-26 15:40:00,89.2,58.7,29.67,North,360,5.0,17.0,36,0.00,,,0.00,578,HR-IXPWINDi_r2_v1.2.,2013-09-26 20:40:00,
2013-09-26 15:45:00,88.8,58.4,29.67,North,360,5.0,17.0,36,0.00,,,0.00,561,HR-IXPWINDi_r2_v1.2.,2013-09-26 20:45:00,
2013-09-26 15:51:00,88.8,58.4,29.67,North,360,10.0,16.0,36,0.00,,,0.00,548,HR-IXPWINDi_r2_v1.2.,2013-09-26 20:51:00,
2013-09-26 15:56:00,88.8,58.4,29.67,North,360,5.0,22.0,36,0.00,,,0.00,540,HR-IXPWINDi_r2_v1.2.,2013-09-26 20:56:00,
2013-09-26 16:01:00,88.7,58.3,29.67,North,360,16.0,22.0,36,0.00,,,0.00,524,HR-IXPWINDi_r2_v1.2.,2013-09-26 21:01:00,
2013-09-26 16:06:00,88.3,58.7,29.67,North,360,9.0,20.0,37,0.00,,,0.00,517,HR-IXPWINDi_r2_v1.2.,2013-09-26 21:06:00,
2013-09-26 16:11:00,88.2,58.6,29.67,North,360,6.0,25.0,37,0.00,,,0.00,504,HR-IXPWINDi_r2_v1.2.,2013-09-26 21:11:00,
2013-09-26 16:16:00,87.9,58.3,29.67,SE,132,12.0,25.0,37,0.00,,,0.00,489,HR-IXPWINDi_r2_v1.2.,2013-09-26 21:16:00,
2013-09-26 16:21:00,87.7,58.2,29.67,North,360,6.0,25.0,37,0.00,,,0.00,476,HR-IXPWINDi_r2_v1.2.,2013-09-26 21:21:00,
2013-09-26 16:26:00,87.6,58.1,29.67,North,360,5.0,24.0,37,0.00,,,0.00,461,HR-IXPWINDi_r2_v1.2.,2013-09-26 21:26:00,
2013-09-26 16:31:00,87.7,58.2,29.67,SSE,159,6.0,24.0,37,0.00,,,0.00,450,HR-IXPWINDi_r2_v1.2.,2013-09-26 21:31:00,
2013-09-26 16:36:00,87.7,58.9,29.67,North,360,6.0,24.0,38,0.00,,,0.00,436,HR-IXPWINDi_r2_v1.2.,2013-09-26 21:36:00,
2013-09-26 16:41:00,87.5,58.0,29.67,North,360,9.0,18.0,37,0.00,,,0.00,422,HR-IXPWINDi_r2_v1.2.,2013-09-26 21:41:00,
2013-09-26 16:47:00,87.5,58.7,29.67,North,360,6.0,21.0,38,0.00,,,0.00,406,HR-IXPWINDi_r2_v1.2.,2013-09-26 21:47:00,
2013-09-26 16:52:00,87.2,58.5,29.67,North,360,9.0,21.0,38,0.00,,,0.00,390,HR-IXPWINDi_r2_v1.2.,2013-09-26 21:52:00,
2013-09-26 16:57:00,87.2,59.2,29.67,North,360,5.0,19.0,39,0.00,,,0.00,374,HR-IXPWINDi_r2_v1.2.,2013-09-26 21:57:00,
2013-09-26 17:02:00,87.0,59.0,29.67,East,96,6.0,20.0,39,0.00,,,0.00,360,HR-IXPWINDi_r2_v1.2.,2013-09-26 22:02:00,
2013-09-26 17:08:00,86.6,58.7,29.67,North,360,12.0,20.0,39,0.00,,,0.00,345,HR-IXPWINDi_r2_v1.2.,2013-09-26 22:08:00,
2013-09-26 17:13:00,86.5,59.3,29.67,ENE,63,7.0,15.0,40,0.00,,,0.00,329,HR-IXPWINDi_r2_v1.2.,2013-09-26 22:13:00,
2013-09-26 17:18:00,86.4,59.2,29.68,North,360,9.0,19.0,40,0.00,,,0.00,313,HR-IXPWINDi_r2_v1.2.,2013-09-26 22:18:00,
2013-09-26 17:23:00,86.0,59.5,29.67,North,360,5.0,20.0,41,0.00,,,0.00,297,HR-IXPWINDi_r2_v1.2.,2013-09-26 22:23:00,
2013-09-26 17:28:00,85.8,59.3,29.68,North,360,6.0,20.0,41,0.00,,,0.00,281,HR-IXPWINDi_r2_v1.2.,2013-09-26 22:28:00,
2013-09-26 17:33:00,85.4,59.0,29.67,North,360,10.0,20.0,41,0.00,,,0.00,265,HR-IXPWINDi_r2_v1.2.,2013-09-26 22:33:00,
2013-09-26 17:39:00,85.4,59.0,29.67,North,360,4.0,20.0,41,0.00,,,0.00,250,HR-IXPWINDi_r2_v1.2.,2013-09-26 22:39:00,
2013-09-26 17:44:00,85.1,59.4,29.68,North,360,5.0,18.0,42,0.00,,,0.00,234,HR-IXPWINDi_r2_v1.2.,2013-09-26 22:44:00,
2013-09-26 17:49:00,84.9,59.2,29.67,North,360,9.0,19.0,42,0.00,,,0.00,214,HR-IXPWINDi_r2_v1.2.,2013-09-26 22:49:00,
2013-09-26 17:54:00,84.7,59.7,29.68,North,360,4.0,21.0,43,0.00,,,0.00,199,HR-IXPWINDi_r2_v1.2.,2013-09-26 22:54:00,
2013-09-26 17:59:00,84.4,59.4,29.68,ESE,117,7.0,21.0,43,0.00,,,0.00,179,HR-IXPWINDi_r2_v1.2.,2013-09-26 22:59:00,
2013-09-26 18:05:00,84.1,59.8,29.68,NNE,26,5.0,22.0,44,0.00,,,0.00,162,HR-IXPWINDi_r2_v1.2.,2013-09-26 23:05:00,
2013-09-26 18:10:00,83.8,59.5,29.68,North,360,5.0,22.0,44,0.00,,,0.00,142,HR-IXPWINDi_r2_v1.2.,2013-09-26 23:10:00,
2013-09-26 18:15:00,83.4,59.8,29.68,North,360,7.0,17.0,45,0.00,,,0.00,125,HR-IXPWINDi_r2_v1.2.,2013-09-26 23:15:00,
2013-09-26 18:20:00,83.2,59.6,29.68,SE,129,4.0,19.0,45,0.00,,,0.00,107,HR-IXPWINDi_r2_v1.2.,2013-09-26 23:20:00,
2013-09-26 18:25:00,82.9,59.3,29.68,North,360,6.0,19.0,45,0.00,,,0.00,90,HR-IXPWINDi_r2_v1.2.,2013-09-26 23:25:00,
2013-09-26 18:30:00,82.6,59.7,29.68,East,84,3.0,18.0,46,0.00,,,0.00,74,HR-IXPWINDi_r2_v1.2.,2013-09-26 23:30:00,
2013-09-26 18:35:00,82.3,59.4,29.68,North,360,8.0,16.0,46,0.00,,,0.00,58,HR-IXPWINDi_r2_v1.2.,2013-09-26 23:35:00,
2013-09-26 18:40:00,82.1,59.2,29.68,North,360,6.0,20.0,46,0.00,,,0.00,46,HR-IXPWINDi_r2_v1.2.,2013-09-26 23:40:00,
2013-09-26 18:46:00,81.9,59.7,29.69,North,360,13.0,21.0,47,0.00,,,0.00,37,HR-IXPWINDi_r2_v1.2.,2013-09-26 23:46:00,
2013-09-26 18:51:00,81.6,59.4,29.69,North,360,6.0,21.0,47,0.00,,,0.00,26,HR-IXPWINDi_r2_v1.2.,2013-09-26 23:51:00,
2013-09-26 18:56:00,81.2,59.6,29.69,North,360,14.0,16.0,48,0.00,,,0.00,19,HR-IXPWINDi_r2_v1.2.,2013-09-26 23:56:00,
2013-09-26 19:01:00,81.1,59.5,29.69,North,360,4.0,16.0,48,0.00,,,0.00,14,HR-IXPWINDi_r2_v1.2.,2013-09-27 00:01:00,
2013-09-26 19:06:00,80.7,59.1,29.69,SSE,156,3.0,15.0,48,0.00,,,0.00,9,HR-IXPWINDi_r2_v1.2.,2013-09-27 00:06:00,
2013-09-26 19:11:00,80.3,59.4,29.69,South,181,5.0,16.0,49,0.00,,,0.00,5,HR-IXPWINDi_r2_v1.2.,2013-09-27 00:11:00,
2013-09-26 19:16:00,80.0,59.6,29.69,North,360,11.0,16.0,50,0.00,,,0.00,0,HR-IXPWINDi_r2_v1.2.,2013-09-27 00:16:00,
2013-09-26 19:22:00,79.7,59.4,29.69,North,360,8.0,18.0,50,0.00,,,0.00,0,HR-IXPWINDi_r2_v1.2.,2013-09-27 00:22:00,
2013-09-26 19:27:00,79.5,59.2,29.69,North,360,3.0,18.0,50,0.00,,,0.00,0,HR-IXPWINDi_r2_v1.2.,2013-09-27 00:27:00,
2013-09-26 19:32:00,79.3,59.6,29.70,North,360,4.0,13.0,51,0.00,,,0.00,0,HR-IXPWINDi_r2_v1.2.,2013-09-27 00:32:00,
2013-09-26 19:37:00,79.1,59.4,29.70,North,360,6.0,16.0,51,0.00,,,0.00,0,HR-IXPWINDi_r2_v1.2.,2013-09-27 00:37:00,
2013-09-26 19:42:00,78.9,59.2,29.70,North,360,5.0,16.0,51,0.00,,,0.00,0,HR-IXPWINDi_r2_v1.2.,2013-09-27 00:42:00,
2013-09-26 19:47:00,78.6,59.5,29.70,North,360,4.0,13.0,52,0.00,,,0.00,0,HR-IXPWINDi_r2_v1.2.,2013-09-27 00:47:00,
2013-09-26 19:52:00,78.4,59.8,29.70,SE,143,7.0,14.0,53,0.00,,,0.00,0,HR-IXPWINDi_r2_v1.2.,2013-09-27 00:52:00,
2013-09-26 19:57:00,78.1,59.5,29.71,North,360,1.0,14.0,53,0.00,,,0.00,0,HR-IXPWINDi_r2_v1.2.,2013-09-27 00:57:00,
2013-09-26 20:02:00,77.8,59.8,29.71,North,360,2.0,12.0,54,0.00,,,0.00,0,HR-IXPWINDi_r2_v1.2.,2013-09-27 01:02:00,
2013-09-26 20:07:00,77.7,59.7,29.71,North,360,5.0,14.0,54,0.00,,,0.00,0,HR-IXPWINDi_r2_v1.2.,2013-09-27 01:07:00,
2013-09-26 20:13:00,77.5,59.5,29.71,ESE,109,5.0,14.0,54,0.00,,,0.00,0,HR-IXPWINDi_r2_v1.2.,2013-09-27 01:13:00,
2013-09-26 20:18:00,77.5,60.0,29.71,North,360,4.0,14.0,55,0.00,,,0.00,0,HR-IXPWINDi_r2_v1.2.,2013-09-27 01:18:00,
2013-09-26 20:23:00,77.3,59.8,29.72,North,360,2.0,14.0,55,0.00,,,0.00,0,HR-IXPWINDi_r2_v1.2.,2013-09-27 01:23:00,
2013-09-26 20:29:00,77.0,59.5,29.72,North,360,5.0,12.0,55,0.00,,,0.00,0,HR-IXPWINDi_r2_v1.2.,2013-09-27 01:29:00,
2013-09-26 20:34:00,76.8,59.9,29.72,ESE,117,2.0,9.0,56,0.00,,,0.00,0,HR-IXPWINDi_r2_v1.2.,2013-09-27 01:34:00,
2013-09-26 20:39:00,76.6,59.7,29.73,North,360,2.0,9.0,56,0.00,,,0.00,0,HR-IXPWINDi_r2_v1.2.,2013-09-27 01:39:00,
2013-09-26 20:44:00,76.2,59.8,29.73,South,171,6.0,10.0,57,0.00,,,0.00,0,HR-IXPWINDi_r2_v1.2.,2013-09-27 01:44:00,
2013-09-26 20:49:00,76.0,60.1,29.73,South,178,2.0,15.0,58,0.00,,,0.00,0,HR-IXPWINDi_r2_v1.2.,2013-09-27 01:49:00,
2013-09-26 20:54:00,76.0,60.6,29.73,ESE,118,5.0,15.0,59,0.00,,,0.00,0,HR-IXPWINDi_r2_v1.2.,2013-09-27 01:54:00,
2013-09-26 20:59:00,75.8,60.4,29.73,SSE,162,5.0,11.0,59,0.00,,,0.00,0,HR-IXPWINDi_r2_v1.2.,2013-09-27 01:59:00,
2013-09-26 21:04:00,75.6,60.7,29.73,North,360,3.0,17.0,60,0.00,,,0.00,0,HR-IXPWINDi_r2_v1.2.,2013-09-27 02:04:00,
2013-09-26 21:09:00,75.4,60.5,29.73,North,360,3.0,17.0,60,0.00,,,0.00,0,HR-IXPWINDi_r2_v1.2.,2013-09-27 02:09:00,
2013-09-26 21:14:00,75.3,60.9,29.74,North,360,6.0,11.0,61,0.00,,,0.00,0,HR-IXPWINDi_r2_v1.2.,2013-09-27 02:14:00,
2013-09-26 21:20:00,75.2,60.8,29.74,North,360,7.0,15.0,61,0.00,,,0.00,0,HR-IXPWINDi_r2_v1.2.,2013-09-27 02:20:00,
2013-09-26 21:25:00,75.1,60.7,29.74,North,360,7.0,15.0,61,0.00,,,0.00,0,HR-IXPWINDi_r2_v1.2.,2013-09-27 02:25:00,
2013-09-26 21:30:00,75.0,60.6,29.74,North,360,7.0,13.0,61,0.00,,,0.00,0,HR-IXPWINDi_r2_v1.2.,2013-09-27 02:30:00,
2013-09-26 21:35:00,74.9,60.9,29.74,North,360,8.0,13.0,62,0.00,,,0.00,0,HR-IXPWINDi_r2_v1.2.,2013-09-27 02:35:00,
2013-09-26 21:40:00,74.8,60.9,29.74,North,360,2.0,11.0,62,0.00,,,0.00,0,HR-IXPWINDi_r2_v1.2.,2013-09-27 02:40:00,
2013-09-26 21:45:00,74.6,60.7,29.74,East,92,2.0,10.0,62,0.00,,,0.00,0,HR-IXPWINDi_r2_v1.2.,2013-09-27 02:45:00,
2013-09-26 21:50:00,74.5,60.6,29.74,North,360,2.0,11.0,62,0.00,,,0.00,0,HR-IXPWINDi_r2_v1.2.,2013-09-27 02:50:00,
2013-09-26 21:55:00,74.4,60.5,29.74,North,360,3.0,13.0,62,0.00,,,0.00,0,HR-IXPWINDi_r2_v1.2.,2013-09-27 02:55:00,
2013-09-26 22:01:00,74.4,60.5,29.74,North,360,2.0,22.0,62,0.00,,,0.00,0,HR-IXPWINDi_r2_v1.2.,2013-09-27 03:01:00,
2013-09-26 22:06:00,74.3,60.4,29.74,ESE,114,7.0,22.0,62,0.00,,,0.00,0,HR-IXPWINDi_r2_v1.2.,2013-09-27 03:06:00,
2013-09-26 22:11:00,74.3,60.4,29.74,SE,134,3.0,15.0,62,0.00,,,0.00,0,HR-IXPWINDi_r2_v1.2.,2013-09-27 03:11:00,
2013-09-26 22:16:00,74.2,60.3,29.74,SSE,155,11.0,16.0,62,0.00,,,0.00,0,HR-IXPWINDi_r2_v1.2.,2013-09-27 03:16:00,
2013-09-26 22:22:00,74.1,60.2,29.74,North,360,2.0,16.0,62,0.00,,,0.00,0,HR-IXPWINDi_r2_v1.2.,2013-09-27 03:22:00,
2013-09-26 22:27:00,74.1,60.6,29.74,North,360,11.0,14.0,63,0.00,,,0.00,0,HR-IXPWINDi_r2_v1.2.,2013-09-27 03:27:00,
2013-09-26 22:32:00,74.0,60.6,29.74,North,360,6.0,17.0,63,0.00,,,0.00,0,HR-IXPWINDi_r2_v1.2.,2013-09-27 03:32:00,
2013-09-26 22:37:00,74.0,60.6,29.74,SSE,150,13.0,17.0,63,0.00,,,0.00,0,HR-IXPWINDi_r2_v1.2.,2013-09-27 03:37:00,
2013-09-26 22:42:00,74.0,60.6,29.74,North,360,11.0,17.0,63,0.00,,,0.00,0,HR-IXPWINDi_r2_v1.2.,2013-09-27 03:42:00,
2013-09-26 22:47:00,74.0,60.6,29.74,North,360,3.0,17.0,63,0.00,,,0.00,0,HR-IXPWINDi_r2_v1.2.,2013-09-27 03:47:00,
2013-09-26 22:52:00,73.9,60.5,29.74,North,360,5.0,16.0,63,0.00,,,0.00,0,HR-IXPWINDi_r2_v1.2.,2013-09-27 03:52:00,
2013-09-26 22:58:00,73.8,60.4,29.74,SSE,158,13.0,18.0,63,0.00,,,0.00,0,HR-IXPWINDi_r2_v1.2.,2013-09-27 03:58:00,
2013-09-26 23:01:00,73.7,60.3,29.74,North,360,7.0,18.0,63,0.00,,,0.00,0,HR-IXPWINDi_r2_v1.2.,2013-09-27 04:01:00,
2013-09-26 23:06:00,73.8,60.4,29.74,SSE,161,6.0,16.0,63,0.00,,,0.00,0,HR-IXPWINDi_r2_v1.2.,2013-09-27 04:06:00,
2013-09-26 23:11:00,73.8,60.4,29.75,North,360,6.0,15.0,63,0.00,,,0.00,0,HR-IXPWINDi_r2_v1.2.,2013-09-27 04:11:00,
2013-09-26 23:16:00,73.7,60.3,29.75,North,360,9.0,20.0,63,0.00,,,0.00,0,HR-IXPWINDi_r2_v1.2.,2013-09-27 04:16:00,
2013-09-26 23:22:00,73.6,60.2,29.75,North,360,11.0,20.0,63,0.00,,,0.00,0,HR-IXPWINDi_r2_v1.2.,2013-09-27 04:22:00,
2013-09-26 23:27:00,73.5,60.5,29.75,East,90,5.0,21.0,64,0.00,,,0.00,0,HR-IXPWINDi_r2_v1.2.,2013-09-27 04:27:00,
2013-09-26 23:32:00,73.4,60.4,29.75,North,360,6.0,21.0,64,0.00,,,0.00,0,HR-IXPWINDi_r2_v1.2.,2013-09-27 04:32:00,
2013-09-26 23:37:00,73.2,60.2,29.75,North,360,6.0,16.0,64,0.00,,,0.00,0,HR-IXPWINDi_r2_v1.2.,2013-09-27 04:37:00,
2013-09-26 23:42:00,73.0,60.5,29.75,North,360,4.0,16.0,65,0.00,,,0.00,0,HR-IXPWINDi_r2_v1.2.,2013-09-27 04:42:00,
2013-09-26 23:47:00,72.8,60.3,29.75,SE,144,7.0,14.0,65,0.00,,,0.00,0,HR-IXPWINDi_r2_v1.2.,2013-09-27 04:47:00,
2013-09-26 23:52:00,72.9,60.4,29.75,SSE,154,4.0,18.0,65,0.00,,,0.00,0,HR-IXPWINDi_r2_v1.2.,2013-09-27 04:52:00,
2013-09-26 23:57:00,72.8,60.3,29.75,North,360,4.0,18.0,65,0.00,,,0.00,0,HR-IXPWINDi_r2_v1.2.,2013-09-27 04:57:00,